Weather History for Cape Cod CGAS, MA

Change the Weather History Date:

Saturday, January 26, 2013

  Actual Average Record
Temperature  
Mean Temperature 20 °F -  
Max Temperature 25 °F 33 °F 48 °F (2002)
Min Temperature 14 °F 17 °F 1 °F (2007)
Degree Days  
Heating Degree Days 46    
Moisture  
Dew Point 7 °F    
Average Humidity 61    
Maximum Humidity 86    
Minimum Humidity 28    
Precipitation  
Precipitation 0.00 in - - ()
Sea Level Pressure  
Sea Level Pressure 30.04 in    
Wind  
Wind Speed 8 mph (NW)    
Max Wind Speed 18 mph    
Max Gust Speed 28 mph    
Visibility 9 miles    
Events Snow    
Averages and records for this station are not official NWS values.
T = Trace of Precipitation, MM = Missing Value Source: NWS Daily Summary

Daily Weather History Graph

Daily Weather History Graph

Search for Another Location

Airport:

Trip Planner

Search our weather history database for the weather conditions in past years. The results will help you decide how hot, cold, wet, or windy it might be!

Date:

Astronomy

Jan. 26, 2013 Rise Set
Actual Time 6:59 AM EST 4:50 PM EST
Civil Twilight 6:29 AM EST 5:20 PM EST
Nautical Twilight 5:56 AM EST 5:53 PM EST
Astronomical Twilight 5:23 AM EST 6:26 PM EST
Moon 4:42 PM EST 6:14 AM EST
Length of Visible Light 10h 50m
Length of Day
9h 51m
Full, 100% of the Moon is Illuminated
Jan 26
Full
Jan 26
Full
Feb 3
Last Quarter
Feb 10
New
Feb 17
First Quarter

Hourly Weather History & Observations

Time (EST) Temp. Windchill Dew Point Humidity Pressure Visibility Wind Dir Wind Speed Gust Speed Precip Events Conditions
12:15 AM 17.6 °F 10.7 °F 14.0 °F 86% 30.03 in 3.0 mi North 4.6 mph - 0.01 in Snow Light Snow
12:35 AM 17.6 °F 10.7 °F 14.0 °F 86% 30.02 in 3.0 mi North 4.6 mph - 0.02 in Snow Light Snow
12:55 AM 17.6 °F 12.3 °F 14.0 °F 86% 30.02 in 3.0 mi NNW 3.5 mph - 0.06 in Snow Light Snow
1:15 AM 17.6 °F 8.2 °F 14.0 °F 86% 30.02 in 2.5 mi NNW 6.9 mph - 0.03 in Snow Light Snow
1:35 AM 17.6 °F 10.7 °F 14.0 °F 86% 30.01 in 4.0 mi North 4.6 mph - 0.10 in Snow Light Snow
1:55 AM 17.6 °F 9.3 °F 14.0 °F 86% 30.00 in 5.0 mi North 5.8 mph - 0.10 in Snow Light Snow
2:15 AM 17.6 °F 8.2 °F 14.0 °F 86% 30.00 in 8.0 mi NNW 6.9 mph - N/A Snow Light Snow
2:35 AM 17.6 °F 8.2 °F 14.0 °F 86% 29.99 in 5.0 mi North 6.9 mph - 0.01 in Snow Light Snow
2:55 AM 17.6 °F 10.7 °F 14.0 °F 86% 29.99 in 7.0 mi NNW 4.6 mph - 0.02 in Snow Light Snow
3:15 AM 17.6 °F 9.3 °F 14.0 °F 86% 29.98 in 10.0 mi NW 5.8 mph - N/A Snow Light Snow
3:35 AM 17.6 °F 7.3 °F 14.0 °F 86% 29.98 in 10.0 mi NW 8.1 mph - N/A Snow Light Snow
3:55 AM 17.6 °F 8.2 °F 14.0 °F 86% 29.98 in 10.0 mi NW 6.9 mph - N/A   Unknown
4:15 AM 17.6 °F 9.3 °F 14.0 °F 86% 29.97 in 10.0 mi NNW 5.8 mph - N/A   Unknown
4:35 AM 15.8 °F 7.2 °F 12.2 °F 86% 29.97 in 10.0 mi NNW 5.8 mph - N/A   Unknown
4:55 AM 15.8 °F 7.2 °F 12.2 °F 86% 29.98 in 10.0 mi NW 5.8 mph - N/A   Unknown
5:15 AM 14.0 °F 3.9 °F 10.4 °F 86% 29.98 in 10.0 mi NW 6.9 mph - N/A   Unknown
5:35 AM 14.0 °F 2.9 °F 10.4 °F 86% 29.99 in 10.0 mi NW 8.1 mph - N/A   Unknown
5:55 AM 14.0 °F 3.9 °F 10.4 °F 86% 29.99 in 10.0 mi NNW 6.9 mph - N/A   Unknown
6:15 AM 14.0 °F 2.9 °F 10.4 °F 86% 29.99 in 10.0 mi NNW 8.1 mph - N/A   Unknown
6:35 AM 14.0 °F 2.0 °F 8.6 °F 79% 29.99 in 10.0 mi NW 9.2 mph - N/A   Unknown
6:55 AM 14.0 °F 2.0 °F 8.6 °F 79% 29.99 in 10.0 mi NW 9.2 mph - N/A   Unknown
7:15 AM 14.0 °F 2.9 °F 8.6 °F 79% 30.00 in 10.0 mi NW 8.1 mph - N/A   Unknown
7:35 AM 14.0 °F 2.0 °F 8.6 °F 79% 30.00 in 10.0 mi NW 9.2 mph - N/A   Unknown
7:55 AM 14.0 °F 1.2 °F 8.6 °F 79% 30.01 in 10.0 mi NW 10.4 mph 16.1 mph N/A   Unknown
8:15 AM 14.0 °F 1.2 °F 8.6 °F 79% 30.02 in 10.0 mi NW 10.4 mph - N/A   Unknown
8:35 AM 14.0 °F 1.2 °F 8.6 °F 79% 30.02 in 10.0 mi NW 10.4 mph - N/A   Unknown
8:55 AM 15.8 °F 2.1 °F 8.6 °F 73% 30.02 in 10.0 mi NW 12.7 mph 17.3 mph N/A   Unknown
9:15 AM 17.6 °F 6.4 °F 10.4 °F 73% 30.02 in 10.0 mi NNW 9.2 mph - N/A   Unknown
9:35 AM 17.6 °F 7.3 °F 10.4 °F 73% 30.02 in 10.0 mi NW 8.1 mph - N/A   Unknown
9:55 AM 17.6 °F 5.7 °F 8.6 °F 68% 30.03 in 10.0 mi NNW 10.4 mph 17.3 mph N/A   Unknown
10:15 AM 19.4 °F 8.6 °F 10.4 °F 68% 30.03 in 10.0 mi NW 9.2 mph - N/A   Unknown
10:35 AM 19.4 °F 10.4 °F 10.4 °F 68% 30.03 in 10.0 mi NNW 6.9 mph - N/A   Unknown
10:55 AM 19.4 °F 8.6 °F 10.4 °F 68% 30.03 in 10.0 mi NW 9.2 mph 16.1 mph N/A   Unknown
11:15 AM 21.2 °F 11.7 °F 10.4 °F 63% 30.02 in 10.0 mi NNW 8.1 mph - N/A   Unknown
11:35 AM 23.0 °F 12.4 °F 10.4 °F 59% 30.01 in 10.0 mi NW 10.4 mph - N/A   Unknown
11:55 AM 23.0 °F 13.1 °F 8.6 °F 54% 30.00 in 10.0 mi NNW 9.2 mph - N/A   Unknown
12:15 PM 23.0 °F 13.9 °F 8.6 °F 54% 30.00 in 10.0 mi NNW 8.1 mph - N/A   Unknown
12:35 PM 23.0 °F 11.7 °F 8.6 °F 54% 30.00 in 10.0 mi WNW 11.5 mph 16.1 mph N/A   Unknown
12:55 PM 24.8 °F 14.6 °F 8.6 °F 50% 30.00 in 10.0 mi NW 10.4 mph - N/A   Unknown
1:15 PM 24.8 °F 16.1 °F 8.6 °F 50% 29.99 in 10.0 mi WNW 8.1 mph - N/A   Unknown
1:35 PM 24.8 °F 13.4 °F 8.6 °F 50% 30.00 in 10.0 mi WNW 12.7 mph 16.1 mph N/A   Unknown
1:55 PM 24.8 °F 13.4 °F 6.8 °F 46% 30.00 in 10.0 mi NW 12.7 mph 17.3 mph N/A   Unknown
2:15 PM 24.8 °F 14.0 °F 6.8 °F 46% 30.01 in 10.0 mi WNW 11.5 mph - N/A   Unknown
2:55 PM 24.8 °F 14.6 °F 5.0 °F 43% 30.01 in 10.0 mi NW 10.4 mph 18.4 mph N/A   Unknown
3:15 PM 24.8 °F 14.0 °F 5.0 °F 43% 30.02 in 10.0 mi WNW 11.5 mph - N/A   Unknown
3:35 PM 24.8 °F 16.1 °F 5.0 °F 43% 30.03 in 10.0 mi NW 8.1 mph - N/A   Unknown
3:55 PM 24.8 °F 14.6 °F 5.0 °F 43% 30.04 in 10.0 mi NNW 10.4 mph 16.1 mph N/A   Unknown
4:15 PM 24.8 °F 17.9 °F 3.2 °F 40% 30.04 in 10.0 mi NNW 5.8 mph 16.1 mph N/A   Unknown
4:35 PM 23.0 °F 14.7 °F 5.0 °F 46% 30.06 in 10.0 mi NW 6.9 mph - N/A   Unknown
4:55 PM 23.0 °F 13.9 °F 1.4 °F 39% 30.07 in 10.0 mi NW 8.1 mph - N/A   Unknown
5:15 PM 23.0 °F 13.9 °F -0.4 °F 36% 30.08 in 10.0 mi NW 8.1 mph 17.3 mph N/A   Unknown
5:35 PM 21.2 °F 10.9 °F -0.4 °F 39% 30.08 in 10.0 mi NW 9.2 mph 16.1 mph N/A   Unknown
5:55 PM 19.4 °F 8.6 °F -0.4 °F 42% 30.08 in 10.0 mi NW 9.2 mph - N/A   Unknown
6:15 PM 19.4 °F 7.9 °F -0.4 °F 42% 30.09 in 10.0 mi NW 10.4 mph - N/A   Unknown
6:35 PM 19.4 °F 8.6 °F -0.4 °F 42% 30.10 in 10.0 mi NW 9.2 mph - N/A   Unknown
6:55 PM 19.4 °F 9.5 °F -0.4 °F 42% 30.11 in 10.0 mi NNW 8.1 mph - N/A   Unknown
7:15 PM 19.4 °F 9.5 °F -2.2 °F 39% 30.11 in 10.0 mi NNW 8.1 mph - N/A   Unknown
7:35 PM 19.4 °F 8.6 °F -0.4 °F 42% 30.12 in 10.0 mi NW 9.2 mph 20.7 mph N/A   Unknown
7:55 PM 19.4 °F 7.2 °F -0.4 °F 42% 30.13 in 10.0 mi NW 11.5 mph 20.7 mph N/A   Unknown
8:15 PM 19.4 °F 6.0 °F -2.2 °F 39% 30.13 in 10.0 mi NW 13.8 mph 21.9 mph N/A   Unknown
8:35 PM 19.4 °F 5.5 °F -4.0 °F 36% 30.14 in 10.0 mi NW 15.0 mph 25.3 mph N/A   Unknown
8:55 PM 17.6 °F 3.2 °F -5.8 °F 35% 30.15 in 10.0 mi NW 15.0 mph 27.6 mph N/A   Unknown
9:15 PM 17.6 °F 4.3 °F -7.6 °F 32% 30.16 in 10.0 mi NW 12.7 mph 27.6 mph N/A   Unknown
9:35 PM 15.8 °F 3.4 °F -7.6 °F 35% 30.16 in 10.0 mi NW 10.4 mph 20.7 mph N/A   Unknown
9:55 PM 15.8 °F 2.1 °F -5.8 °F 38% 30.17 in 10.0 mi NW 12.7 mph 19.6 mph N/A   Unknown
10:15 PM 15.8 °F 0.3 °F -4.0 °F 41% 30.18 in 10.0 mi NW 16.1 mph 24.2 mph N/A   Unknown
10:35 PM 15.8 °F 1.4 °F -4.0 °F 41% 30.19 in 10.0 mi NNW 13.8 mph 21.9 mph N/A   Unknown
10:55 PM 15.8 °F 0.3 °F -4.0 °F 41% 30.19 in 10.0 mi NNW 16.1 mph 24.2 mph N/A   Unknown
11:15 PM 15.8 °F 0.3 °F -2.2 °F 45% 30.20 in 10.0 mi NW 16.1 mph 23.0 mph N/A   Unknown
11:55 PM 15.8 °F 3.4 °F -2.2 °F 45% 30.21 in 10.0 mi NW 10.4 mph 20.7 mph N/A   Unknown